Regional Weather Roundup
Issued by NWS Midland/Odessa, TX

Home | Current Version | Previous Version | Text Only | Print | Product List | Glossary On
Versions: 1 2 3 4 5 6 7 8 9 10 11 12 13 14 15 16 17 18 19 20 21 22 23 24 25 26 27 28 29 30 31 32 33 34 35 36 37 38 39 40 41 42 43 44 45 46 47 48 49 50
000
ASUS44 KMAF 270810
RWRMAF
MIDLAND AREA WEATHER ROUNDUP
NATIONAL WEATHER SERVICE MIDLAND TX
200 AM CST SAT DEC 27 2014

...IN SOUTHWEST TEXAS AND SOUTHEAST NEW MEXICO...

CITY           SKY/WX    TMP DP  RH WIND       PRES   REMARKS
ALPINE         CLOUDY    34  29  82 NW3       30.14S
ANDREWS        CLOUDY    37  30  74 N10       30.10S WCI  30
ARTESIA        CLOUDY    37  28  70 N12       30.10R WCI  30
BIG SPRING     CLOUDY    43  30  58 N13       30.11R WCI  37
CARLSBAD       CLOUDY    39  36  89 S5        30.10R WCI  36
DRYDEN           N/A     53  30  41 N15G21    30.00S
FORT STOCKTON  MOCLDY    41  30  65 W7        30.08S WCI  36
GUAD PASS      NOT AVBL
HOBBS          LGT SNOW  32  32 100 NE9       30.10F WCI  24
MARFA          MOCLDY    36  27  69 E8        30.07S WCI  29
MIDLAND AIRPK  MOCLDY    43  33  66 N8        30.10R WCI  38
MIDLAND INTL   MOCLDY    42  32  67 N12       30.09R WCI  36
ODESSA         MOCLDY    40  30  67 N9        30.09R WCI  34
PECOS          MOCLDY    42  32  69 NW12      30.11S WCI  35
PRESIDIO       FAIR      47  30  53 NW6       30.02F
SEMINOLE       CLOUDY    35  32  90 N8        30.12R WCI  28
SNYDER         CLOUDY    38  29  70 N13G18    30.11R WCI  30
WINK           MOCLDY    43  30  60 N7        30.09R WCI  39
$$
...OTHER STATIONS IN TEXAS...

CITY           SKY/WX    TMP DP  RH WIND       PRES   REMARKS
ABILENE        CLOUDY    41  30  65 N14       30.11R WCI  33
AMARILLO       CLOUDY    24  21  88 N15       30.13R WCI  11
AUSTIN         PTCLDY    64  62  93 S6        29.94F
BROWNSVILLE    CLOUDY    70  68  93 SE14      29.90F
CORPUS CHRISTI MOCLDY    67  65  93 SE9       29.92F FOG
DALLAS FTW     CLOUDY    59  58  96 CALM      29.99R FOG
DEL RIO        CLOUDY    54  49  83 W14G20    29.92S
EL PASO        CLOUDY    38  32  79 S9        30.07R WCI  31
HOUSTON INT    CLOUDY    67  66  97 SE7       29.97F
LUBBOCK        LGT SNOW  32  30  92 N9        30.10R WCI  24
SAN ANGELO     CLOUDY    52  36  54 N12       30.03R
SAN ANTONIO    CLOUDY    64  62  93 SE10      29.94F FOG
WACO           CLOUDY    63  62  97 S6        29.96R FOG
WICHITA FALLS  NOT AVBL
$$
...OTHER LOCATIONS IN NEW MEXICO...

CITY           SKY/WX    TMP DP  RH WIND       PRES   REMARKS
ALAMAGORDO     MOCLDY    32  27  80 NE3       30.06F
ALBUQUERQUE    CLEAR     21  12  68 S3        30.07S
CANNON AFB     CLOUDY    25  21  83 E8        30.10R WCI  16
CLOVIS         CLOUDY    25  19  80 NE8       30.11R WCI  16
HOLLOMAN AFB   PTCLDY    32  28  83 CALM      30.05F
ROSWELL        CLOUDY    33  25  72 N7        30.11R WCI  27
RUIDOSO        PTCLDY    19   3  49 W7        30.04R WCI  10
SANTA FE       PTCLDY    12   6  77 E7        30.02S WCI   1
TRUTH OR CONSE CLEAR     26  11  52 NW7       30.06R WCI  18
TUCUMCARI      PTCLDY    14  11  87 N9        30.11S WCI   2
$$


USA.gov is the U.S. government's official web portal to all federal, state and local government web resources and services.